�������l�o���
Date,Time,MP-1(��Sv/h),MP-2(��Sv/h),MP-3(��Sv/h),MP-4(��Sv/h),MP-5(��Sv/h),MP-6(��Sv/h),MP-7(��Sv/h),MP-8(��Sv/h),����,����(m/s),���J
2019/12/03,00:00,0.710,1.016,0.686,1.268,0.889,0.414,0.717,0.680,���k��,1.0,��
2019/12/03,00:10,0.709,1.013,0.685,1.267,0.891,0.413,0.715,0.677,���쐼,1.2,��
2019/12/03,00:20,0.709,1.013,0.686,1.269,0.887,0.411,0.717,0.677,��,1.6,��
2019/12/03,00:30,0.712,1.012,0.685,1.271,0.887,0.412,0.717,0.678,��,4.0,��
2019/12/03,00:40,0.709,1.013,0.685,1.268,0.888,0.411,0.716,0.680,��,8.0,��
2019/12/03,00:50,0.707,1.014,0.683,1.270,0.889,0.412,0.717,0.679,���k��,7.7,��
2019/12/03,01:00,0.708,1.013,0.684,1.268,0.888,0.413,0.715,0.678,��,9.1,��
2019/12/03,01:10,0.708,1.016,0.685,1.269,0.888,0.411,0.714,0.678,��,8.6,�L
2019/12/03,01:20,0.708,1.014,0.684,1.270,0.890,0.412,0.714,0.679,��,8.5,�L
2019/12/03,01:30,0.707,1.015,0.685,1.268,0.888,0.411,0.715,0.679,��,7.4,��
2019/12/03,01:40,0.709,1.013,0.684,1.266,0.889,0.410,0.714,0.679,���k��,5.2,��
2019/12/03,01:50,0.709,1.015,0.686,1.268,0.891,0.412,0.715,0.678,���k��,4.3,��
2019/12/03,02:00,0.708,1.016,0.683,1.269,0.887,0.410,0.715,0.678,���k��,4.0,��
2019/12/03,02:10,0.710,1.014,0.685,1.267,0.889,0.412,0.715,0.676,���k��,1.9,��
2019/12/03,02:20,0.707,1.014,0.684,1.267,0.888,0.411,0.715,0.679,��,1.7,��
2019/12/03,02:30,0.708,1.013,0.685,1.270,0.887,0.412,0.715,0.679,��,2.7,��
2019/12/03,02:40,0.711,1.013,0.684,1.267,0.888,0.413,0.716,0.679,��,4.6,��
2019/12/03,02:50,0.709,1.015,0.685,1.269,0.889,0.412,0.712,0.677,���k��,4.9,��
2019/12/03,03:00,0.709,1.015,0.685,1.268,0.888,0.412,0.715,0.678,���k��,4.3,��
2019/12/03,03:10,0.708,1.014,0.685,1.268,0.888,0.411,0.714,0.677,��,3.8,��
2019/12/03,03:20,0.707,1.014,0.684,1.266,0.889,0.412,0.714,0.678,��,3.8,��
2019/12/03,03:30,0.708,1.016,0.682,1.269,0.890,0.412,0.716,0.679,��,4.7,��
2019/12/03,03:40,0.709,1.014,0.683,1.268,0.890,0.412,0.715,0.679,��,4.3,��
2019/12/03,03:50,0.707,1.014,0.685,1.267,0.889,0.413,0.716,0.679,���k��,3.6,��
2019/12/03,04:00,0.707,1.013,0.686,1.269,0.889,0.412,0.714,0.678,��,3.3,��
2019/12/03,04:10,0.708,1.017,0.685,1.270,0.888,0.413,0.715,0.678,��,4.2,��
2019/12/03,04:20,0.708,1.015,0.684,1.269,0.888,0.414,0.715,0.679,��,6.0,��
2019/12/03,04:30,0.708,1.014,0.685,1.270,0.890,0.412,0.715,0.678,���k��,7.1,��
2019/12/03,04:40,0.709,1.015,0.682,1.269,0.888,0.412,0.715,0.677,���k��,5.3,��
2019/12/03,04:50,0.708,1.012,0.683,1.268,0.891,0.412,0.715,0.676,���k��,4.9,��
2019/12/03,05:00,0.708,1.014,0.685,1.269,0.890,0.414,0.716,0.679,���k��,2.1,��
2019/12/03,05:10,0.708,1.014,0.686,1.268,0.889,0.411,0.716,0.678,�k�k��,3.8,��
2019/12/03,05:20,0.707,1.014,0.684,1.270,0.889,0.412,0.714,0.676,�k�k��,6.4,��
2019/12/03,05:30,0.709,1.014,0.686,1.268,0.887,0.412,0.717,0.678,�k��,5.2,��
2019/12/03,05:40,0.708,1.012,0.685,1.269,0.887,0.412,0.715,0.677,�k��,3.5,��
2019/12/03,05:50,0.707,1.016,0.684,1.269,0.889,0.413,0.717,0.678,�k��,5.2,��
2019/12/03,06:00,0.709,1.015,0.685,1.269,0.888,0.412,0.716,0.676,�k��,5.8,��
2019/12/03,06:10,0.707,1.015,0.683,1.268,0.888,0.413,0.716,0.679,���k��,6.9,��
2019/12/03,06:20,0.708,1.013,0.684,1.271,0.888,0.410,0.716,0.679,���k��,7.5,��
2019/12/03,06:30,0.707,1.013,0.685,1.271,0.887,0.413,0.717,0.676,���k��,7.5,��
2019/12/03,06:40,0.707,1.015,0.686,1.270,0.890,0.412,0.717,0.677,���k��,9.9,��
2019/12/03,06:50,0.708,1.015,0.686,1.268,0.888,0.412,0.713,0.678,���k��,7.1,��
2019/12/03,07:00,0.707,1.014,0.686,1.269,0.888,0.412,0.717,0.678,�k��,7.4,��
2019/12/03,07:10,0.708,1.015,0.686,1.271,0.888,0.410,0.717,0.677,�k��,5.6,��
2019/12/03,07:20,0.707,1.016,0.684,1.269,0.889,0.410,0.715,0.678,�k��,6.6,��
2019/12/03,07:30,0.709,1.016,0.684,1.271,0.890,0.412,0.716,0.678,�k��,5.3,��
2019/12/03,07:40,0.707,1.017,0.684,1.270,0.890,0.410,0.716,0.678,�k�k��,4.9,��
2019/12/03,07:50,0.709,1.018,0.684,1.272,0.889,0.411,0.717,0.677,�k�k��,2.8,��
2019/12/03,08:00,0.708,1.015,0.684,1.268,0.890,0.411,0.716,0.678,�k��,2.8,��
2019/12/03,08:10,0.708,1.018,0.684,1.271,0.890,0.412,0.716,0.677,�k��,3.5,��
2019/12/03,08:20,0.710,1.016,0.685,1.271,0.891,0.410,0.718,0.678,�k�k��,4.3,��
2019/12/03,08:30,0.709,1.018,0.683,1.270,0.890,0.409,0.717,0.679,�k��,4.7,��
2019/12/03,08:40,0.707,1.015,0.684,1.271,0.890,0.411,0.717,0.678,���k��,5.0,��
2019/12/03,08:50,0.709,1.017,0.685,1.270,0.889,0.412,0.718,0.677,�k��,4.9,��
2019/12/03,09:00,0.707,1.016,0.684,1.271,0.889,0.410,0.716,0.676,���k��,5.7,��
2019/12/03,09:10,0.709,1.016,0.683,1.272,0.888,0.410,0.714,0.677,�k��,5.2,��
2019/12/03,09:20,0.708,1.015,0.685,1.271,0.890,0.411,0.713,0.680,�k��,3.5,��
2019/12/03,09:30,0.706,1.012,0.686,1.271,0.891,0.409,0.714,0.677,���k��,3.5,��
2019/12/03,09:40,0.708,1.013,0.686,1.272,0.892,0.410,0.716,0.678,��,2.2,��
2019/12/03,09:50,0.709,1.017,0.685,1.271,0.889,0.410,0.715,0.677,���k��,5.5,��
2019/12/03,10:00,0.709,1.012,0.683,1.272,0.889,0.409,0.714,0.680,���k��,5.2,��
2019/12/03,10:10,0.709,1.013,0.684,1.274,0.891,0.411,0.715,0.679,��,3.8,��
2019/12/03,10:20,0.709,1.013,0.682,1.272,0.890,0.412,0.715,0.679,���k��,5.6,��
2019/12/03,10:30,0.710,1.013,0.683,1.272,0.891,0.410,0.714,0.679,��,3.6,��
2019/12/03,10:40,0.709,1.017,0.685,1.272,0.891,0.411,0.715,0.677,��,6.0,��
2019/12/03,10:50,0.710,1.017,0.686,1.274,0.891,0.410,0.715,0.680,���k��,9.7,��
2019/12/03,11:00,0.709,1.016,0.685,1.274,0.892,0.410,0.717,0.679,��,8.0,��
2019/12/03,11:10,-,1.018,0.688,1.275,0.893,0.412,0.717,0.680,��,7.8,��
2019/12/03,11:20,-,1.014,0.685,1.273,0.893,0.411,0.716,0.678,���k��,8.0,��
2019/12/03,11:30,-,1.016,0.685,1.275,0.894,0.412,0.716,0.680,��,9.7,��
2019/12/03,11:40,-,1.018,0.686,1.275,0.894,0.410,0.714,0.680,��,6.7,��
2019/12/03,11:50,-,1.015,0.686,1.275,0.893,0.412,0.715,0.680,��,7.8,��
2019/12/03,12:00,-,1.018,0.688,1.272,0.893,0.411,0.715,0.680,��,8.6,��
2019/12/03,12:10,-,1.018,0.685,1.274,0.894,0.412,0.715,0.680,��,9.3,��
2019/12/03,12:20,-,1.017,0.686,1.274,0.896,0.412,0.715,0.680,��,7.7,��
2019/12/03,12:30,-,1.017,0.687,1.272,0.895,0.411,0.716,0.676,��,7.4,��
2019/12/03,12:40,-,1.019,0.687,1.272,0.897,0.412,0.715,0.679,��,6.7,��
2019/12/03,12:50,-,1.018,0.688,1.275,0.895,0.413,0.715,0.676,��,6.7,��
2019/12/03,13:00,-,1.016,0.689,1.275,0.895,0.414,0.716,0.676,�k��,4.9,��
2019/12/03,13:10,-,1.017,0.687,1.274,0.895,0.414,0.717,0.676,�k��,5.8,��
2019/12/03,13:20,-,1.018,0.687,1.276,0.894,0.412,0.716,0.677,�k��,6.6,��
2019/12/03,13:30,-,1.021,0.686,1.273,0.899,0.412,0.715,0.676,�k��,6.3,��
2019/12/03,13:40,0.710,1.021,0.686,1.277,0.897,0.412,0.716,0.678,�k��,6.7,��
2019/12/03,13:50,0.708,1.020,0.686,1.275,0.894,0.412,0.714,0.677,���k��,5.3,��
2019/12/03,14:00,0.710,1.017,0.687,1.276,0.896,0.412,0.715,0.676,�k��,6.3,��
2019/12/03,14:10,0.707,1.020,0.688,1.276,0.897,0.412,0.713,0.676,�k��,6.7,��
2019/12/03,14:20,0.709,1.018,0.687,1.278,0.897,0.413,0.716,0.677,�k��,6.1,�L
2019/12/03,14:30,0.708,1.021,0.687,1.279,0.896,0.412,0.714,0.676,�k��,5.8,��
2019/12/03,14:40,0.711,1.021,0.688,1.278,0.896,0.412,0.716,0.677,�k��,7.1,��
2019/12/03,14:50,0.713,1.019,0.687,1.274,0.897,0.414,0.716,0.677,�k��,8.2,��
2019/12/03,15:00,0.708,1.024,0.687,1.277,0.896,0.411,0.717,0.679,�k��,7.7,��
2019/12/03,15:10,0.708,1.026,0.688,1.279,0.895,0.412,0.714,0.680,�k�k��,5.0,��
2019/12/03,15:20,0.708,1.023,0.687,1.277,0.896,0.410,0.716,0.681,�k�k��,6.0,��
2019/12/03,15:30,0.710,1.022,0.688,1.276,0.892,0.412,0.715,0.680,�k�k��,6.0,��
2019/12/03,15:40,0.709,1.024,0.687,1.276,0.896,0.412,0.715,0.679,�k�k��,6.1,��
2019/12/03,15:50,0.710,1.026,0.687,1.276,0.894,0.411,0.716,0.681,�k�k��,6.6,��
2019/12/03,16:00,0.711,1.025,0.687,1.275,0.896,0.412,0.716,0.680,�k�k��,6.9,��
2019/12/03,16:10,0.711,1.025,0.689,1.277,0.897,0.411,0.715,0.680,�k�k��,6.9,��
2019/12/03,16:20,0.713,1.026,0.687,1.276,0.895,0.411,0.715,0.679,�k�k��,7.5,��
2019/12/03,16:30,0.711,1.026,0.688,1.278,0.895,0.410,0.717,0.679,�k�k��,8.2,��
2019/12/03,16:40,0.710,1.027,0.688,1.277,0.897,0.410,0.717,0.679,�k�k��,7.8,��
2019/12/03,16:50,0.709,1.024,0.686,1.277,0.897,0.411,0.716,0.678,�k�k��,7.4,��
2019/12/03,17:00,0.710,1.028,0.687,1.275,0.895,0.410,0.715,0.678,�k�k��,8.0,��
2019/12/03,17:10,0.708,1.027,0.686,1.277,0.895,0.411,0.716,0.678,�k�k��,7.2,��
2019/12/03,17:20,0.709,1.025,0.687,1.277,0.894,0.410,0.716,0.679,�k�k��,6.9,��
2019/12/03,17:30,0.709,1.024,0.686,1.278,0.896,0.410,0.716,0.679,�k�k��,4.4,��
2019/12/03,17:40,0.710,1.025,0.688,1.278,0.896,0.409,0.715,0.675,�k�k��,4.0,��
2019/12/03,17:50,0.706,1.026,0.685,1.276,0.894,0.410,0.717,0.680,�k�k��,1.9,��
2019/12/03,18:00,0.710,1.025,0.685,1.276,0.896,0.408,0.715,0.679,�k�k��,3.0,��
2019/12/03,18:10,0.708,1.026,0.687,1.275,0.896,0.410,0.715,0.679,���k��,3.4,��
2019/12/03,18:20,0.710,1.021,0.688,1.277,0.894,0.408,0.714,0.679,��,3.5,��
2019/12/03,18:30,0.708,1.024,0.687,1.277,0.895,0.409,0.716,0.679,���k��,3.8,��
2019/12/03,18:40,0.709,1.024,0.686,1.276,0.894,0.409,0.714,0.679,��,2.5,��
2019/12/03,18:50,0.709,1.024,0.686,1.276,0.896,0.408,0.716,0.679,��,2.5,��
2019/12/03,19:00,0.707,1.023,0.686,1.274,0.894,0.410,0.716,0.679,���쐼,3.1,��
2019/12/03,19:10,0.708,1.024,0.687,1.275,0.893,0.409,0.715,0.677,���쐼,4.1,��
2019/12/03,19:20,0.710,1.022,0.687,1.278,0.896,0.409,0.713,0.678,���쐼,4.9,��
2019/12/03,19:30,0.709,1.024,0.687,1.278,0.894,0.410,0.716,0.679,��,5.5,��
2019/12/03,19:40,0.709,1.025,0.686,1.277,0.893,0.408,0.715,0.678,��,6.1,��
2019/12/03,19:50,0.710,1.025,0.685,1.275,0.893,0.408,0.714,0.677,���쐼,4.9,��
2019/12/03,20:00,0.709,1.022,0.686,1.276,0.894,0.408,0.716,0.677,��,5.5,��
2019/12/03,20:10,0.708,1.023,0.688,1.277,0.891,0.410,0.715,0.679,��,5.0,��
2019/12/03,20:20,0.708,1.022,0.687,1.275,0.894,0.408,0.715,0.678,��,4.7,��
2019/12/03,20:30,0.709,1.025,0.687,1.273,0.895,0.408,0.716,0.678,��,5.5,��
2019/12/03,20:40,0.709,1.023,0.686,1.276,0.895,0.408,0.716,0.677,��,4.9,��
2019/12/03,20:50,0.709,1.024,0.687,1.276,0.891,0.409,0.715,0.679,���k��,5.5,��
2019/12/03,21:00,0.708,1.021,0.685,1.276,0.897,0.411,0.717,0.678,���k��,6.6,��
2019/12/03,21:10,0.708,1.024,0.687,1.276,0.897,0.410,0.715,0.679,���k��,6.7,��
2019/12/03,21:20,0.708,1.024,0.688,1.277,0.895,0.408,0.715,0.679,���k��,7.7,��
2019/12/03,21:30,0.707,1.024,0.686,1.278,0.896,0.410,0.716,0.679,���k��,9.1,��
2019/12/03,21:40,0.710,1.023,0.686,1.278,0.895,0.411,0.716,0.679,���k��,9.3,��
2019/12/03,21:50,0.711,1.023,0.687,1.278,0.895,0.409,0.716,0.679,���k��,9.6,��
2019/12/03,22:00,0.709,1.024,0.687,1.278,0.895,0.410,0.717,0.677,���k��,9.1,��
2019/12/03,22:10,0.710,1.022,0.690,1.279,0.896,0.411,0.716,0.679,���k��,7.1,��
2019/12/03,22:20,0.709,1.022,0.689,1.276,0.895,0.410,0.717,0.678,���k��,7.2,��
2019/12/03,22:30,0.708,1.023,0.687,1.275,0.896,0.411,0.717,0.678,��,6.3,��
2019/12/03,22:40,0.710,1.022,0.688,1.278,0.895,0.410,0.718,0.678,���k��,10.5,��
2019/12/03,22:50,0.711,1.023,0.689,1.278,0.894,0.411,0.717,0.678,���k��,11.3,��
2019/12/03,23:00,0.712,1.022,0.690,1.276,0.895,0.410,0.717,0.678,���k��,13.5,��
2019/12/03,23:10,0.710,1.026,0.685,1.277,0.894,0.410,0.720,0.678,���k��,13.0,��
2019/12/03,23:20,0.710,1.023,0.687,1.278,0.895,0.411,0.717,0.678,���k��,11.6,��
2019/12/03,23:30,0.709,1.022,0.688,1.277,0.896,0.411,0.718,0.679,��,10.8,��
2019/12/03,23:40,0.709,1.023,0.689,1.278,0.893,0.411,0.717,0.680,��,9.6,��
2019/12/03,23:50,0.711,1.024,0.688,1.279,0.896,0.410,0.719,0.679,��,6.7,��
